Santa Rosa, CA

6:54 AM PDT on April 21, 2018 (GMT -0700)
Sonoma County

Weather History for KSTS - February, 2010

Change the Weather History Date:

Wednesday, February 3, 2010

  Actual Average Record
Temperature  
Mean Temperature 52 °F 48 °F  
Max Temperature 60 °F 59 °F 77 °F (2018)
Min Temperature 44 °F 38 °F 29 °F (2007)
Degree Days  
Heating Degree Days 13    
Month to date heating degree days 43  
Since 1 July heating degree days 1812  
Cooling Degree Days 0    
Month to date cooling degree days 0  
Year to date cooling degree days 0  
Growing Degree Days 2 (Base 50)    
Moisture  
Dew Point 46 °F    
Average Humidity 79    
Maximum Humidity 100    
Minimum Humidity 57    
Precipitation  
Precipitation 0.01 in 0.21 in 0.84 in (2017)
Month to date precipitation 0.02 0.61  
Year to date precipitation 12.61 7.66  
Since 1 July precipitation 20.69  
Sea Level Pressure  
Sea Level Pressure 29.82 in    
Wind  
Wind Speed 2 mph (South)    
Max Wind Speed 8 mph    
Max Gust Speed 12 mph    
Visibility 7 miles    
Events      
T = Trace of Precipitation, MM = Missing Value Source: NWS Daily Summary

Daily Weather History Graph

Daily Weather History Graph

Search for Another Location

Airport or City:

Astronomy

Feb. 03, 2010 Rise Set
Actual Time 7:14 AM PST 5:35 PM PST
Civil Twilight 6:46 AM PST 6:03 PM PST
Nautical Twilight 6:15 AM PST 6:35 PM PST
Astronomical Twilight 5:44 AM PST 7:06 PM PST
Moon 11:25 PM PST (2/3) 9:31 AM PST (2/3)
Length of Visible Light 11h 16m
Length of Day
10h 21m
Waning Gibbous, 73% of the Moon is Illuminated
Feb 3
Waning Gibbous
Feb 5
Last Quarter
Feb 13
New
Feb 21
First Quarter
Feb 28
Full

Hourly Weather History & Observations

Time (PST) Temp. Windchill Dew Point Humidity Pressure Visibility Wind Dir Wind Speed Gust Speed Precip Events Conditions
12:07 AM 46.4 °F - 46.4 °F 100% 29.83 in 3.0 mi Calm Calm - N/A   Mostly Cloudy
12:13 AM 46.4 °F - 44.6 °F 93% 29.83 in 1.8 mi Calm Calm - N/A   Mostly Cloudy
12:23 AM 44.6 °F - 44.6 °F 100% 29.83 in 0.8 mi Calm Calm - N/A   Mostly Cloudy
12:27 AM 46.4 °F - 46.4 °F 100% 29.83 in 2.0 mi Calm Calm - N/A   Mostly Cloudy
12:34 AM 46.4 °F - 46.4 °F 100% 29.83 in 8.0 mi Calm Calm - N/A   Overcast
12:53 AM 46.0 °F - 45.0 °F 96% 29.81 in 8.0 mi Calm Calm - N/A   Overcast
1:09 AM 46.4 °F - 46.4 °F 100% 29.83 in 4.0 mi Calm Calm - N/A   Overcast
1:53 AM 46.0 °F - 46.0 °F 100% 29.81 in 8.0 mi Calm Calm - N/A   Overcast
2:53 AM 46.0 °F - 46.0 °F 100% 29.80 in 6.0 mi Calm Calm - N/A   Overcast
3:02 AM 46.4 °F - 46.4 °F 100% 29.82 in 6.0 mi Calm Calm - N/A   Overcast
3:28 AM 46.4 °F - 46.4 °F 100% 29.81 in 4.0 mi Calm Calm - N/A   Overcast
3:37 AM 46.4 °F - 46.4 °F 100% 29.81 in 2.0 mi Calm Calm - N/A   Overcast
3:46 AM 44.6 °F - 44.6 °F 100% 29.81 in 3.0 mi Calm Calm - N/A   Overcast
3:50 AM 44.6 °F - 44.6 °F 100% 29.81 in 1.8 mi Calm Calm - N/A   Overcast
3:53 AM 45.0 °F - 45.0 °F 100% 29.79 in 1.2 mi Calm Calm - N/A   Overcast
4:16 AM 46.4 °F - 46.4 °F 100% 29.81 in 3.0 mi Calm Calm - N/A   Overcast
4:53 AM 46.0 °F - 46.0 °F 100% 29.80 in 5.0 mi Calm Calm - N/A   Mostly Cloudy
5:53 AM 46.9 °F - 46.9 °F 100% 29.83 in 9.0 mi Calm Calm - 0.01 in   Overcast
6:18 AM 46.4 °F - 46.4 °F 100% 29.85 in 9.0 mi Calm Calm - N/A   Overcast
6:53 AM 46.9 °F - 46.9 °F 100% 29.84 in 8.0 mi ENE 3.5 mph - N/A   Overcast
7:53 AM 46.9 °F - 46.9 °F 100% 29.85 in 5.0 mi Calm Calm - N/A   Mostly Cloudy
8:53 AM 48.9 °F - 48.0 °F 97% 29.85 in 9.0 mi Calm Calm - N/A   Mostly Cloudy
9:39 AM 51.8 °F - 48.2 °F 88% 29.88 in 10.0 mi Calm Calm - N/A   Mostly Cloudy
9:53 AM 52.0 °F - 48.0 °F 86% 29.86 in 10.0 mi Calm Calm - N/A   Mostly Cloudy
10:00 AM 51.8 °F - 48.2 °F 88% 29.88 in 10.0 mi Calm Calm - N/A   Mostly Cloudy
10:53 AM 53.1 °F - 48.9 °F 86% 29.86 in 10.0 mi South 3.5 mph - N/A   Overcast
10:57 AM 53.6 °F - 48.2 °F 82% 29.87 in 10.0 mi Calm Calm - N/A   Mostly Cloudy
11:53 AM 54.0 °F - 48.0 °F 80% 29.84 in 10.0 mi South 3.5 mph - N/A   Mostly Cloudy
12:53 PM 57.0 °F - 46.9 °F 69% 29.81 in 10.0 mi SE 4.6 mph - N/A   Mostly Cloudy
1:00 PM 57.2 °F - 46.4 °F 67% 29.82 in 10.0 mi SSE 8.1 mph - N/A   Partly Cloudy
1:27 PM 59.0 °F - 46.4 °F 63% 29.81 in 10.0 mi SSW 5.8 mph - N/A   Scattered Clouds
1:29 PM 59.0 °F - 46.4 °F 63% 29.81 in 10.0 mi SSE 8.1 mph - N/A   Mostly Cloudy
1:53 PM 57.9 °F - 44.1 °F 60% 29.78 in 10.0 mi SSE 4.6 mph - N/A   Mostly Cloudy
2:53 PM 59.0 °F - 45.0 °F 60% 29.78 in 10.0 mi South 5.8 mph - N/A   Overcast
3:53 PM 57.0 °F - 48.0 °F 72% 29.80 in 10.0 mi SSW 6.9 mph - N/A   Overcast
4:53 PM 55.0 °F - 48.0 °F 77% 29.80 in 10.0 mi WSW 5.8 mph - N/A   Overcast
5:53 PM 54.0 °F - 46.9 °F 77% 29.80 in 10.0 mi Calm Calm - N/A   Overcast
6:53 PM 52.0 °F - 46.9 °F 83% 29.81 in 10.0 mi Calm Calm - N/A   Overcast
7:53 PM 50.0 °F - 46.9 °F 89% 29.81 in 10.0 mi Calm Calm - N/A   Partly Cloudy
8:53 PM 46.9 °F - 46.0 °F 97% 29.81 in 10.0 mi Calm Calm - N/A   Clear
9:53 PM 45.0 °F 43.5 °F 45.0 °F 100% 29.80 in 8.0 mi NW 3.5 mph - N/A   Clear
10:13 PM 44.6 °F - 44.6 °F 100% 29.82 in 1.8 mi Calm Calm - N/A   Clear
10:32 PM 44.6 °F - 44.6 °F 100% 29.81 in 3.0 mi Calm Calm - N/A   Clear
10:53 PM 45.0 °F - 44.1 °F 97% 29.80 in 10.0 mi Calm Calm - N/A   Clear
11:53 PM 45.0 °F - 44.1 °F 97% 29.81 in 10.0 mi Calm Calm - N/A   Clear